HULIANWAN GAOGUI-01 (H*)

Last updated on Sun Apr 12 2026 00:02:56 GMT+0000 (Coordinated Universal Time)

1 59069U 24040A 26101.24216921 .00000157 00000+0 00000+0 0 9997 2 59069 0.0664 319.8629 0004156 61.4437 298.9593 1.00273427 6654
UTC large
Height (km)
Speed (km/s)
/
Latitude / Longitude
Inclination (degrees)
Orbital Period (minutes)
Azimuth
Elevation
Range (km)
Doppler Factor

Next 0 passes for location: London (51.5072 / 0.1276)

Sorry there are no passes over London.
HULIANWAN GAOGUI-01 (H*)